Regional Weather Roundup
Issued by NWS

Home | Current Version | Previous Version | Text Only | Print | Product List | Glossary Off
Versions: 1 2 3 4 5 6 7 8 9 10 11 12 13 14 15 16 17 18 19 20 21 22 23 24 25 26 27 28 29 30 31 32 33 34 35 36 37 38 39 40 41 42 43 44 45 46 47 48 49 50

000
ASUS43 KBIS 211102
RWRND

NORTH DAKOTA REGIONAL WEATHER ROUNDUP
NATIONAL WEATHER SERVICE BISMARCK ND
500 AM CST TUE NOV 21 2017

NOTE: "FAIR" INDICATES FEW OR NO CLOUDS BELOW 12,000 FEET WITH NO
SIGNIFICANT WEATHER AND/OR OBSTRUCTIONS TO VISIBILITY.


NDZ001>003-009>011-017-211200-
NORTHWEST NORTH DAKOTA

CITY           SKY/WX    TMP DP  RH WIND       PRES   REMARKS
WILLISTON      CLOUDY     3  -2  79 W13       30.27R WCI -14
MINOT          CLEAR      7   1  76 NW22G28   30.15R WCI -14
MINOT AFB      CLEAR      6   1  76 NW21G28   30.16R WCI -14
$$

NDZ018>021-031>035-040>046-211200-
SOUTHWEST NORTH DAKOTA

CITY           SKY/WX    TMP DP  RH WIND       PRES   REMARKS
BISMARCK       CLOUDY    17   6  62 NW20G30   30.16R WCI   1
DICKINSON      CLOUDY     5   0  79 NW15      30.16R WCI -13
GARRISON         N/A      7   2  80 NW21      30.16R WCI -13
HETTINGER ARPT CLOUDY     7  -1  70 NW17      30.18R WCI -12
$$

NDZ004>008-012>016-024-026-027-054-211200-
NORTHEAST NORTH DAKOTA

CITY           SKY/WX    TMP DP  RH WIND       PRES   REMARKS
GRAND FORKS    FLURRIES  16  10  77 NW26G38   29.97R WCI  -3
GRND FRKS AFB  FLURRIES  15   8  74 N20G32    29.99R WCI  -3
DEVILS LAKE    CLEAR     12   7  80 NW24G30   30.04R WCI  -8
$$

NDZ022-023-025-028>030-036>039-047>053-211200-
SOUTHEAST NORTH DAKOTA

CITY           SKY/WX    TMP DP  RH WIND       PRES   REMARKS
FARGO          CLOUDY    19  10  68 NW23G36   29.96R WCI   2
JAMESTOWN      PTCLDY    13   7  77 NW25G33   30.03R WCI  -7
$$




USA.gov is the U.S. government's official web portal to all federal, state and local government web resources and services.